Погода в Туркменбаши

Туркменистан     40°00′39″N   52°59′26″E
темп.,
°C
ветер,
м/с
пор.,
м/с
влажн.,
%
обл.,
%
осадки,
мм/ч
давл.,
гПа
погр.,
м
8 мая, сб
сб823:00+16ссз8959100 0.0 1018282
02:00+16ссз6761100 0.0 1018273
05:00+15ссз5665100 0.1 1019233
08:00+15ссз3471100 0.9 1020195
11:00+16зсз2262100 1.2 1021359
14:00+16ююз426596 0.0 1020508
17:00+17зюз326373 0.0 1019477
20:00+16юз21650 0.0 1018246
9 мая, вс
вс923:00+16зюз11690 0.0 1018110
02:00+16вюв11690 0.0 101754
05:00+16юв12702 0.0 101615
08:00+17вюв23635 0.0 1016122
11:00+20юв34510 0.0 1015407
14:00+21ююв47440 0.0 1013587
17:00+22ю36410 0.0 1010695
20:00+22ююв14420 0.0 1009194
10 мая, пн
пн1023:00+23в34403 0.0 100858
02:00+22св22370 0.0 100811
05:00+17ссз10146372 0.0 1010251
08:00+18ссз795836 0.0 1011197
11:00+18ссз12136772 0.0 1013500
14:00+18ссз13146237 0.0 1015579
17:00+16ссз1414663 0.0 1016644
20:00+14ссз1212720 0.0 1017530
11 мая, вт
вт1123:00+13ссз910778 0.0 1020535
02:00+13сз897716 0.0 1019609
05:00+12сз667871 0.0 1020627
08:00+13сз3373100 0.0 1020565
11:00+15з4366100 0.0 1020646
14:00+16з43585 0.0 1020638
17:00+18зсз5453100 0.0 1018562
20:00+16сз55585 0.0 1019279
12 мая, ср
ср1223:00+15сз566233 0.0 1019264
02:00+15с6762100 0.0 1018239
05:00+15с4560100 0.0 1018170
08:00+16ссв455887 0.0 1018185
11:00+21ссв1247100 0.0 1017363
14:00+23зюз424332 0.0 1016491
17:00+23зсз65430 0.0 1015402
20:00+21сз67480 0.0 1015215